Torna al catalogo

STARLINK-5173

AttivoComunicazioniVLEO
NORAD 54059·PAYLOAD·🇺🇸 United States

Lanciato Oct 20, 2022 da Cape Canaveral Space Force Station

Loading…

Prossimi Passaggi (prossime 24 ore)

TLE

AggiornatoSource: CelesTrak SupGP

Epoca: Sep 14, 2026, 14:42 UTC

1 54059C 22136J   26257.61298611  .00000539  00000+0  15920-4 0  2577
2 54059  53.1571 205.0009 0001415 107.3557 231.5853 15.34383585    15

Traccia STARLINK-5173 in tempo reale con AllMySat

Download on the App Store